Zurück zum Katalog

FENGYUN 2A DEB

AktivGEO
NORAD 43355·DEBRIS·🇨🇳 China

Gestartet Jun 10, 1997 von Xichang Satellite Launch Center

Loading…

TLE

AktuellSource: Space-Track

Epoche: Sep 14, 2026, 17:11 UTC

1 43355U 97029D   26257.71602859 -.00000352  00000-0  00000-0 0  9998
2 43355  14.8533 356.2500 0055145  54.3086 306.2184  1.00261338 43503

Verfolge FENGYUN 2A DEB in Echtzeit mit AllMySat

Download on the App Store